This demonstration page uses our WeatherBlox Daily Observations layout. Learn more.

Left ArrowRight Arrow

41.55636, -103.73856

Hourly Observations for July 2, 2015

Temp ( °F °C ) Dew Point ( °F °C ) Humidity (%) Winds ( mph kmh ) Pressure ( in mb ) Visibility ( mi km ) Precip ( " mm )
12:53 am 00:53 Clear 66 18.9 60 15.6 81 81 ESE 8 13 29.88 1012 10 16.0934 0 0
1:53 am 01:53 Cloudy with Light Rain 61 16.1 56 13.3 84 84 NNE 24 39 30.01 1016 9 14.48406 0 0.0254
2:03 am 02:03 Cloudy with Thunderstorms 61 16 57 14 88 88 NE 26 43 30.03 1017 5 8.0467 0 0
2:28 am 02:28 Cloudy with Nearby Thunderstorms 61 16 57 14 88 88 NE 28 44 30 1016 10 16.0934 0 0
2:41 am 02:41 Cloudy 61 16 N/A N/A NE 18 30 30 1016 10 16.0934 0.05 1.27
2:53 am 02:53 Cloudy 61 16 N/A N/A NE 21 33 30.01 1016 10 16.0934 0.05 1.27
3:53 am 03:53 Cloudy with Light Rain 61 16 N/A N/A S 9 15 29.99 1016 10 16.0934 0.01 0.254
4:53 am 04:53 Clear 61 16 N/A N/A S 5 7 29.98 1015 10 16.0934 0.02 0.508
5:53 am 05:53 Sunny 61 16 N/A N/A S 6 9 29.97 1015 10 16.0934 0 0
6:53 am 06:53 Mostly Sunny 62 16.7 62 16.7 100 100 NW 12 19 30 1016 9 14.48406 0 0
7:53 am 07:53 Mostly Sunny 65 18.3 61 16.1 87 87 W 14 22 30.03 1017 10 16.0934 0 0
8:53 am 08:53 Sunny 69 20.6 60 15.6 73 73 WNW 14 22 30.01 1016 10 16.0934 0 0
9:53 am 09:53 Sunny 73 22.8 61 16.1 66 66 NW 14 22 30.01 1016 10 16.0934 0 0
10:53 am 10:53 Sunny 77 25 62 16.7 60 60 NW 10 17 30 1016 10 16.0934 0 0
11:53 am 11:53 Sunny 83 28.3 56 13.3 40 40 NNW 7 11 29.98 1015 10 16.0934 0 0
12:53 pm 12:53 Mostly Sunny 83 28.3 55 12.8 38 38 N 10 17 29.98 1015 10 16.0934 0 0
1:53 pm 13:53 Mostly Cloudy 84 28.9 53 11.7 34 34 N 13 20 29.98 1015 10 16.0934 0 0
2:53 pm 14:53 Mostly Sunny 83 28.3 55 12.8 38 38 N 9 15 29.98 1015 10 16.0934 0 0
3:53 pm 15:53 Partly Cloudy 81 27.2 53 11.7 38 38 NNE 12 19 29.98 1015 10 16.0934 0 0
4:53 pm 16:53 Mostly Cloudy 84 28.9 55 12.8 37 37 NNE 15 24 29.96 1014 10 16.0934 0 0
5:53 pm 17:53 Sunny 83 28.3 55 12.8 38 38 N 12 19 29.94 1014 10 16.0934 0 0
6:53 pm 18:53 Sunny 81 27.2 54 12.2 39 39 N 13 20 29.95 1014 10 16.0934 0 0
7:53 pm 19:53 Sunny 76 24.4 59 15 56 56 NNE 5 7 29.96 1015 10 16.0934 0 0
8:53 pm 20:53 Cloudy 72 22.2 60 15.6 66 66 ENE 8 13 29.98 1015 10 16.0934 0 0
9:53 pm 21:53 Cloudy 70 21.1 61 16.1 73 73 NE 7 11 30 1016 10 16.0934 0 0
10:53 pm 22:53 Mostly Cloudy 69 20.6 61 16.1 76 76 Calm 30 1016 10 16.0934 0 0
11:53 pm 23:53 undefined 68 20 59 15 73 73 VRB 3 6 29.99 1016 10 16.0934 0 0

Powered by AerisWeather